| time (UTC) | temp C | wind direction | speed KPH | gust KPH | rain 1hr cm | rain 24hr cm | rain mn cm | humidity % | barometer mb |
| 20260507091944 | 11 | 103 | 0.0 | 0.0 | 0.00 | 1.02 | 0.71 | 88 | 1004.3 |
| 20260507091438 | 12 | 103 | 0.0 | 0.0 | 0.00 | 1.02 | 0.71 | 88 | 1004.2 |
| 20260507090931 | 12 | 103 | 0.0 | 0.0 | 0.00 | 1.02 | 0.71 | 88 | 1004.1 |
| 20260507090650 | 12 | 103 | 0.0 | 0.0 | 0.00 | 1.02 | 0.71 | 88 | 1004.1 |
| 20260507085920 | 12 | 103 | 0.0 | 0.0 | 0.00 | 1.02 | 0.71 | 88 | 1003.9 |
| 20260507084908 | 12 | 103 | 0.0 | 3.2 | 0.00 | 1.02 | 0.71 | 88 | 1003.8 |
| 20260507084627 | 12 | 103 | 0.0 | 3.2 | 0.00 | 1.02 | 0.71 | 88 | 1004.1 |
| 20260507083856 | 12 | 89 | 0.0 | 3.2 | 0.00 | 1.02 | 0.71 | 88 | 1004.1 |
| 20260507083349 | 12 | 264 | 0.0 | 1.6 | 0.00 | 1.02 | 0.71 | 88 | 1004.0 |
| 20260507082844 | 12 | 264 | 0.0 | 1.6 | 0.00 | 1.02 | 0.71 | 88 | 1003.9 |
| 20260507082338 | 12 | 110 | 0.0 | 1.6 | 0.00 | 1.02 | 0.71 | 88 | 1003.8 |
| 20260507081833 | 12 | 110 | 0.0 | 4.8 | 0.00 | 1.02 | 0.71 | 88 | 1003.7 |
| 20260507081326 | 12 | 72 | 0.0 | 4.8 | 0.00 | 1.02 | 0.71 | 88 | 1003.5 |
| 20260507080820 | 12 | 117 | 1.6 | 9.7 | 0.00 | 1.02 | 0.71 | 88 | 1003.2 |
| 20260507080536 | 12 | 117 | 1.6 | 9.7 | 0.00 | 1.02 | 0.71 | 88 | 1003.3 |
| 20260507075808 | 12 | 61 | 1.6 | 9.7 | 0.00 | 1.02 | 0.71 | 88 | 1003.4 |
| 20260507075301 | 12 | 245 | 1.6 | 8.0 | 0.00 | 1.02 | 0.71 | 88 | 1003.3 |
| 20260507074756 | 13 | 131 | 1.6 | 6.4 | 0.00 | 1.02 | 0.71 | 87 | 1003.3 |
| 20260507074250 | 13 | 91 | 1.6 | 6.4 | 0.00 | 1.02 | 0.71 | 87 | 1003.0 |
| 20260507074008 | 13 | 70 | 1.6 | 6.4 | 0.00 | 1.02 | 0.71 | 87 | 1002.9 |
| 20260507073238 | 13 | 74 | 0.0 | 6.4 | 0.00 | 1.02 | 0.71 | 87 | 1002.9 |
| 20260507072732 | 13 | 53 | 0.0 | 4.8 | 0.00 | 1.02 | 0.71 | 87 | 1003.0 |
| 20260507072226 | 13 | 96 | 0.0 | 1.6 | 0.00 | 1.02 | 0.71 | 87 | 1002.9 |
| 20260507071721 | 13 | 289 | 0.0 | 4.8 | 0.00 | 1.02 | 0.71 | 87 | 1002.9 |
| 20260507071214 | 13 | 287 | 0.0 | 4.8 | 0.00 | 1.02 | 0.71 | 87 | 1002.7 |
| 20260507070708 | 13 | 181 | 0.0 | 3.2 | 0.00 | 1.02 | 0.71 | 87 | 1002.7 |
| 20260507070202 | 13 | 122 | 0.0 | 3.2 | 0.03 | 1.02 | 0.71 | 87 | 1002.8 |
| 20260507065150 | 13 | 351 | 0.0 | 8.0 | 0.03 | 1.02 | 0.71 | 87 | 1002.9 |
| 20260507064909 | 13 | 93 | 0.0 | 4.8 | 0.03 | 1.02 | 0.71 | 87 | 1002.8 |
| 20260507064138 | 13 | 150 | 1.6 | 9.7 | 0.03 | 1.02 | 0.71 | 87 | 1002.6 |
| 20260507063127 | 13 | 310 | 3.2 | 9.7 | 0.05 | 1.02 | 0.71 | 87 | 1002.4 |
| 20260507062845 | 13 | 72 | 1.6 | 9.7 | 0.10 | 1.02 | 0.71 | 87 | 1002.2 |
| 20260507062114 | 13 | 91 | 1.6 | 6.4 | 0.15 | 1.02 | 0.71 | 88 | 1002.2 |
| 20260507061608 | 14 | 48 | 1.6 | 6.4 | 0.18 | 1.02 | 0.71 | 87 | 1002.3 |
| 20260507061102 | 14 | 81 | 1.6 | 4.8 | 0.28 | 1.02 | 0.71 | 87 | 1002.5 |
| 20260507060820 | 14 | 63 | 1.6 | 4.8 | 0.30 | 0.99 | 0.71 | 87 | 1002.4 |
| 20260507060050 | 14 | 89 | 0.0 | 1.6 | 0.33 | 0.99 | 0.69 | 87 | 1002.6 |
| 20260507055544 | 14 | 89 | 0.0 | 4.8 | 0.41 | 0.99 | 0.69 | 87 | 1002.7 |
| 20260507055305 | 15 | 100 | 0.0 | 4.8 | 0.43 | 0.99 | 0.69 | 87 | 1003.0 |
| 20260507054533 | 15 | 105 | 0.0 | 4.8 | 0.43 | 0.99 | 0.69 | 87 | 1002.7 |
| 20260507054244 | 15 | 105 | 0.0 | 4.8 | 0.53 | 0.99 | 0.69 | 87 | 1002.5 |
| 20260507053520 | 15 | 123 | 0.0 | 3.2 | 0.69 | 0.99 | 0.69 | 87 | 1002.4 |
| 20260507053014 | 15 | 120 | 0.0 | 4.8 | 0.66 | 0.97 | 0.66 | 87 | 1002.6 |
| 20260507052508 | 15 | 58 | 0.0 | 4.8 | 0.61 | 0.91 | 0.61 | 87 | 1002.7 |
| 20260507052003 | 15 | 187 | 1.6 | 3.2 | 0.56 | 0.86 | 0.56 | 87 | 1002.7 |
| 20260507051456 | 15 | 64 | 1.6 | 3.2 | 0.48 | 0.79 | 0.51 | 87 | 1002.6 |
| 20260507050950 | 15 | 141 | 0.0 | 3.2 | 0.43 | 0.74 | 0.43 | 87 | 1003.2 |
| 20260507050444 | 15 | 228 | 0.0 | 3.2 | 0.38 | 0.69 | 0.38 | 87 | 1003.0 |
| 20260507045937 | 16 | 103 | 0.0 | 1.6 | 0.33 | 0.64 | 0.33 | 87 | 1002.3 |
| 20260507045432 | 16 | 103 | 0.0 | 0.0 | 0.28 | 0.58 | 0.28 | 86 | 1002.9 |
| 20260507044926 | 16 | 103 | 0.0 | 3.2 | 0.25 | 0.56 | 0.25 | 86 | 1002.8 |
| 20260507044421 | 16 | 103 | 0.0 | 3.2 | 0.25 | 0.56 | 0.25 | 85 | 1003.1 |
| 20260507043914 | 16 | 101 | 0.0 | 6.4 | 0.08 | 0.38 | 0.08 | 84 | 1003.1 |
| 20260507043639 | 16 | 70 | 1.6 | 6.4 | 0.00 | 0.30 | 0.00 | 84 | 1003.0 |
| 20260507042903 | 16 | 296 | 1.6 | 4.8 | 0.00 | 0.30 | 0.00 | 84 | 1002.8 |
| 20260507042356 | 16 | 175 | 0.0 | 4.8 | 0.00 | 0.30 | 0.00 | 84 | 1003.0 |
| 20260507041850 | 16 | 96 | 0.0 | 4.8 | 0.00 | 0.30 | 0.00 | 84 | 1002.7 |
| 20260507041348 | 16 | 15 | 0.0 | 4.8 | 0.00 | 0.30 | 0.00 | 84 | 1002.4 |
| 20260507040848 | 16 | 271 | 0.0 | 4.8 | 0.00 | 0.30 | 0.00 | 85 | 1002.3 |
| 20260507040347 | 16 | 142 | 0.0 | 4.8 | 0.00 | 0.30 | 0.00 | 85 | 1002.3 |
| 20260507035848 | 17 | 279 | 1.6 | 6.4 | 0.00 | 0.30 | 0.30 | 86 | 1002.3 |
| 20260507035345 | 17 | 40 | 1.6 | 9.7 | 0.00 | 0.30 | 0.30 | 87 | 1002.3 |
| 20260507034845 | 17 | 61 | 3.2 | 9.7 | 0.00 | 0.30 | 0.30 | 87 | 1002.4 |
| 20260507034343 | 17 | 98 | 1.6 | 8.0 | 0.00 | 0.30 | 0.30 | 87 | 1002.3 |
| 20260507033844 | 17 | 281 | 0.0 | 4.8 | 0.00 | 0.30 | 0.30 | 87 | 1002.2 |
| 20260507033344 | 17 | 195 | 0.0 | 0.0 | 0.00 | 0.30 | 0.30 | 87 | 1002.1 |
| 20260507032841 | 17 | 195 | 0.0 | 0.0 | 0.00 | 0.30 | 0.30 | 87 | 1002.1 |
| 20260507032339 | 17 | 195 | 0.0 | 3.2 | 0.00 | 0.30 | 0.30 | 87 | 1001.9 |
| 20260507031841 | 17 | 195 | 0.0 | 3.2 | 0.00 | 0.30 | 0.30 | 87 | 1001.8 |
| 20260507031336 | 18 | 75 | 0.0 | 1.6 | 0.00 | 0.30 | 0.30 | 87 | 1002.0 |
| 20260507030835 | 18 | 75 | 0.0 | 1.6 | 0.00 | 0.30 | 0.30 | 87 | 1002.1 |
| 20260507030334 | 17 | 75 | 0.0 | 3.2 | 0.00 | 0.30 | 0.30 | 86 | 1002.1 |
| 20260507025834 | 17 | 75 | 0.0 | 3.2 | 0.00 | 0.30 | 0.30 | 86 | 1002.0 |
| 20260507025327 | 17 | 228 | 0.0 | 1.6 | 0.00 | 0.30 | 0.30 | 87 | 1001.8 |
| 20260507024825 | 17 | 216 | 0.0 | 0.0 | 0.00 | 0.30 | 0.30 | 87 | 1001.7 |
| 20260507024324 | 17 | 216 | 0.0 | 0.0 | 0.00 | 0.30 | 0.30 | 87 | 1001.6 |
| 20260507023821 | 17 | 216 | 0.0 | 0.0 | 0.00 | 0.30 | 0.30 | 87 | 1001.3 |
| 20260507023551 | 17 | 216 | 0.0 | 0.0 | 0.00 | 0.30 | 0.30 | 87 | 1001.5 |
| 20260507022821 | 17 | 216 | 0.0 | 0.0 | 0.00 | 0.30 | 0.30 | 87 | 1001.5 |
| 20260507022319 | 17 | 216 | 0.0 | 0.0 | 0.00 | 0.30 | 0.30 | 87 | 1001.4 |
| 20260507021819 | 17 | 216 | 0.0 | 0.0 | 0.00 | 0.30 | 0.30 | 87 | 1001.3 |
| 20260507021316 | 17 | 216 | 0.0 | 0.0 | 0.00 | 0.30 | 0.30 | 87 | 1001.5 |
| 20260507020814 | 17 | 216 | 0.0 | 0.0 | 0.00 | 0.30 | 0.30 | 87 | 1001.4 |
| 20260507020311 | 17 | 216 | 0.0 | 0.0 | 0.00 | 0.30 | 0.30 | 87 | 1001.6 |
| 20260507015809 | 17 | 216 | 0.0 | 0.0 | 0.00 | 0.30 | 0.30 | 87 | 1001.5 |
| 20260507015307 | 17 | 216 | 0.0 | 0.0 | 0.00 | 0.30 | 0.30 | 87 | 1001.4 |
| 20260507014806 | 17 | 216 | 0.0 | 0.0 | 0.00 | 0.30 | 0.30 | 87 | 1001.4 |
| 20260507014305 | 17 | 216 | 0.0 | 0.0 | 0.00 | 0.30 | 0.30 | 87 | 1001.5 |
| 20260507014025 | 17 | 216 | 0.0 | 0.0 | 0.00 | 0.30 | 0.30 | 87 | 1001.6 |
| 20260507013304 | 17 | 216 | 0.0 | 0.0 | 0.00 | 0.30 | 0.30 | 87 | 1001.8 |
| 20260507012801 | 17 | 216 | 0.0 | 0.0 | 0.00 | 0.30 | 0.30 | 87 | 1002.1 |
| 20260507012259 | 17 | 216 | 0.0 | 0.0 | 0.00 | 0.30 | 0.30 | 87 | 1002.1 |
| 20260507011757 | 17 | 216 | 0.0 | 0.0 | 0.00 | 0.30 | 0.30 | 87 | 1002.1 |
| 20260507011259 | 17 | 216 | 0.0 | 0.0 | 0.00 | 0.30 | 0.30 | 87 | 1002.1 |
| 20260507010248 | 17 | 216 | 0.0 | 0.0 | 0.00 | 0.30 | 0.30 | 87 | 1001.9 |
| 20260507005741 | 17 | 216 | 0.0 | 0.0 | 0.00 | 0.30 | 0.30 | 87 | 1001.8 |
| 20260507005237 | 18 | 216 | 0.0 | 0.0 | 0.00 | 0.30 | 0.30 | 86 | 1001.6 |
| 20260507004950 | 18 | 216 | 0.0 | 0.0 | 0.00 | 0.30 | 0.30 | 86 | 1001.6 |
| 20260507004223 | 18 | 216 | 0.0 | 0.0 | 0.00 | 0.30 | 0.30 | 86 | 1001.5 |
| 20260507003717 | 18 | 216 | 0.0 | 0.0 | 0.00 | 0.30 | 0.30 | 86 | 1001.7 |
| 20260507003211 | 18 | 216 | 0.0 | 0.0 | 0.00 | 0.30 | 0.30 | 85 | 1001.5 |
| 20260507002708 | 18 | 216 | 0.0 | 0.0 | 0.00 | 0.30 | 0.30 | 85 | 1001.4 |
| 20260507002159 | 18 | 216 | 0.0 | 0.0 | 0.00 | 0.30 | 0.30 | 85 | 1001.4 |
| 20260507001653 | 18 | 216 | 0.0 | 0.0 | 0.00 | 0.30 | 0.30 | 84 | 1001.5 |
| 20260507001148 | 18 | 216 | 0.0 | 0.0 | 0.00 | 0.30 | 0.30 | 84 | 1001.6 |
| 20260507000641 | 19 | 216 | 0.0 | 0.0 | 0.00 | 0.30 | 0.30 | 84 | 1001.6 |
| 20260507000137 | 19 | 216 | 0.0 | 0.0 | 0.00 | 0.30 | 0.30 | 84 | 1001.4 |
| 20260506235629 | 19 | 216 | 0.0 | 0.0 | 0.00 | 0.30 | 0.30 | 83 | 1001.5 |
| 20260506235123 | 19 | 216 | 0.0 | 0.0 | 0.00 | 0.30 | 0.30 | 83 | 1001.3 |
| 20260506234617 | 19 | 216 | 0.0 | 0.0 | 0.00 | 0.30 | 0.30 | 83 | 1001.3 |
| 20260506234110 | 20 | 216 | 0.0 | 0.0 | 0.00 | 0.30 | 0.30 | 82 | 1001.2 |
| 20260506233607 | 20 | 216 | 0.0 | 1.6 | 0.00 | 0.30 | 0.30 | 82 | 1001.2 |
| 20260506233059 | 20 | 216 | 0.0 | 1.6 | 0.00 | 0.30 | 0.30 | 82 | 1001.1 |
| 20260506232047 | 20 | 168 | 0.0 | 4.8 | 0.00 | 0.30 | 0.30 | 81 | 1000.9 |
| 20260506231037 | 20 | 166 | 1.6 | 4.8 | 0.00 | 0.30 | 0.30 | 80 | 1000.9 |
| 20260506230530 | 20 | 176 | 1.6 | 9.7 | 0.00 | 0.30 | 0.30 | 80 | 1001.0 |
| 20260506230023 | 20 | 184 | 1.6 | 9.7 | 0.00 | 0.30 | 0.30 | 80 | 1001.0 |
| 20260506225518 | 20 | 235 | 1.6 | 8.0 | 0.00 | 0.30 | 0.30 | 79 | 1001.1 |
| 20260506225011 | 20 | 242 | 1.6 | 8.0 | 0.00 | 0.30 | 0.30 | 79 | 1000.9 |
| 20260506224507 | 20 | 213 | 1.6 | 8.0 | 0.00 | 0.30 | 0.30 | 79 | 1000.8 |
| 20260506223959 | 21 | 214 | 1.6 | 6.4 | 0.00 | 0.30 | 0.30 | 79 | 1000.8 |
| 20260506223453 | 21 | 186 | 1.6 | 8.0 | 0.00 | 0.30 | 0.30 | 79 | 1000.9 |
| 20260506222947 | 21 | 204 | 1.6 | 8.0 | 0.00 | 0.30 | 0.30 | 78 | 1000.9 |
| 20260506222706 | 21 | 207 | 3.2 | 16.1 | 0.00 | 0.30 | 0.30 | 78 | 1000.9 |
| 20260506221937 | 21 | 200 | 3.2 | 16.1 | 0.00 | 0.30 | 0.30 | 77 | 1000.9 |
| 20260506221430 | 21 | 204 | 4.8 | 12.9 | 0.00 | 0.30 | 0.30 | 77 | 1001.0 |
| 20260506221147 | 21 | 195 | 4.8 | 12.9 | 0.00 | 0.30 | 0.30 | 77 | 1001.0 |
| 20260506220417 | 21 | 205 | 3.2 | 9.7 | 0.00 | 0.30 | 0.30 | 76 | 1000.8 |
| 20260506215911 | 21 | 205 | 1.6 | 8.0 | 0.00 | 0.30 | 0.30 | 76 | 1000.9 |
| 20260506215406 | 21 | 174 | 1.6 | 9.7 | 0.00 | 0.30 | 0.30 | 77 | 1001.0 |
| 20260506214859 | 21 | 202 | 3.2 | 11.3 | 0.00 | 0.30 | 0.30 | 77 | 1001.1 |
| 20260506214353 | 21 | 212 | 3.2 | 11.3 | 0.00 | 0.30 | 0.30 | 76 | 1001.0 |
| 20260506213847 | 21 | 279 | 3.2 | 9.7 | 0.00 | 0.30 | 0.30 | 76 | 1000.9 |
| 20260506213341 | 21 | 242 | 4.8 | 12.9 | 0.00 | 0.30 | 0.30 | 75 | 1000.8 |
| 20260506212836 | 21 | 283 | 3.2 | 12.9 | 0.00 | 0.30 | 0.30 | 75 | 1000.7 |
| 20260506212329 | 21 | 269 | 3.2 | 12.9 | 0.00 | 0.30 | 0.30 | 77 | 1000.7 |
| 20260506211823 | 21 | 160 | 3.2 | 12.9 | 0.00 | 0.30 | 0.30 | 76 | 1000.6 |
| 20260506211317 | 21 | 236 | 3.2 | 11.3 | 0.00 | 0.30 | 0.30 | 77 | 1000.6 |
| 20260506210812 | 21 | 56 | 4.8 | 12.9 | 0.00 | 0.30 | 0.30 | 77 | 1000.5 |
| 20260506210307 | 21 | 222 | 6.4 | 17.7 | 0.00 | 0.30 | 0.30 | 77 | 1000.4 |
| 20260506205759 | 21 | 213 | 4.8 | 17.7 | 0.00 | 0.30 | 0.30 | 77 | 1000.4 |
| 20260506205253 | 21 | 193 | 3.2 | 16.1 | 0.00 | 0.30 | 0.30 | 78 | 1000.4 |
| 20260506204747 | 21 | 209 | 3.2 | 16.1 | 0.00 | 0.30 | 0.30 | 78 | 1000.4 |
| 20260506204242 | 21 | 198 | 3.2 | 11.3 | 0.00 | 0.30 | 0.30 | 79 | 1000.3 |
| 20260506203737 | 21 | 217 | 3.2 | 9.7 | 0.00 | 0.30 | 0.30 | 79 | 1000.4 |
| 20260506203229 | 21 | 221 | 4.8 | 11.3 | 0.00 | 0.30 | 0.30 | 80 | 1000.4 |
| 20260506202723 | 21 | 193 | 4.8 | 12.9 | 0.00 | 0.30 | 0.30 | 79 | 1000.4 |
| 20260506202217 | 21 | 227 | 4.8 | 12.9 | 0.00 | 0.30 | 0.30 | 79 | 1000.4 |
| 20260506201711 | 21 | 242 | 4.8 | 14.5 | 0.00 | 0.30 | 0.30 | 79 | 1000.5 |
| 20260506201434 | 21 | 215 | 4.8 | 17.7 | 0.00 | 0.30 | 0.30 | 78 | 1000.5 |
| 20260506200659 | 21 | 216 | 3.2 | 17.7 | 0.00 | 0.30 | 0.30 | 78 | 1000.5 |
| 20260506200153 | 21 | 258 | 3.2 | 12.9 | 0.00 | 0.30 | 0.30 | 78 | 1000.4 |
| 20260506195648 | 21 | 198 | 3.2 | 9.7 | 0.00 | 0.30 | 0.30 | 79 | 1000.4 |
| 20260506195141 | 21 | 224 | 3.2 | 9.7 | 0.00 | 0.30 | 0.30 | 77 | 1000.5 |
| 20260506194637 | 21 | 153 | 1.6 | 8.0 | 0.00 | 0.30 | 0.30 | 79 | 1000.4 |
| 20260506194130 | 21 | 285 | 3.2 | 12.9 | 0.00 | 0.30 | 0.30 | 78 | 1000.4 |
| 20260506193623 | 21 | 220 | 3.2 | 12.9 | 0.00 | 0.30 | 0.30 | 79 | 1000.6 |
| 20260506193118 | 21 | 282 | 1.6 | 9.7 | 0.00 | 0.30 | 0.30 | 80 | 1000.6 |
| 20260506192612 | 20 | 225 | 3.2 | 17.7 | 0.00 | 0.30 | 0.30 | 80 | 1000.6 |
| 20260506192335 | 20 | 108 | 3.2 | 17.7 | 0.00 | 0.30 | 0.30 | 79 | 1000.8 |
| 20260506191822 | 20 | 213 | 3.2 | 16.1 | 0.00 | 0.30 | 0.30 | 79 | 1000.8 |
| 20260506191054 | 20 | 262 | 1.6 | 8.0 | 0.00 | 0.30 | 0.30 | 79 | 1000.9 |
| 20260506190547 | 20 | 238 | 3.2 | 14.5 | 0.00 | 0.30 | 0.30 | 80 | 1000.9 |
| 20260506190040 | 20 | 224 | 4.8 | 14.5 | 0.00 | 0.30 | 0.30 | 79 | 1001.0 |
| 20260506185533 | 20 | 190 | 3.2 | 12.9 | 0.00 | 0.30 | 0.30 | 78 | 1001.1 |
| 20260506185028 | 20 | 281 | 4.8 | 11.3 | 0.00 | 0.30 | 0.30 | 79 | 1001.0 |
| 20260506184521 | 20 | 143 | 3.2 | 16.1 | 0.00 | 0.30 | 0.30 | 79 | 1001.0 |
| 20260506184017 | 20 | 202 | 4.8 | 16.1 | 0.00 | 0.30 | 0.30 | 78 | 1001.1 |
| 20260506183728 | 20 | 241 | 3.2 | 12.9 | 0.00 | 0.30 | 0.30 | 78 | 1001.3 |
| 20260506183005 | 20 | 119 | 3.2 | 9.7 | 0.00 | 0.30 | 0.30 | 80 | 1001.3 |
| 20260506182457 | 20 | 251 | 1.6 | 11.3 | 0.00 | 0.30 | 0.30 | 79 | 1001.2 |
| 20260506181951 | 20 | 240 | 3.2 | 22.5 | 0.00 | 0.30 | 0.30 | 80 | 1001.4 |
| 20260506181708 | 20 | 153 | 4.8 | 22.5 | 0.03 | 0.30 | 0.30 | 80 | 1001.6 |
| 20260506180939 | 20 | 266 | 4.8 | 19.3 | 0.03 | 0.30 | 0.30 | 80 | 1001.5 |
| 20260506180437 | 20 | 146 | 4.8 | 12.9 | 0.03 | 0.30 | 0.30 | 81 | 1001.6 |
| 20260506175938 | 20 | 243 | 4.8 | 14.5 | 0.03 | 0.30 | 0.30 | 82 | 1001.7 |
| 20260506175438 | 19 | 136 | 4.8 | 14.5 | 0.03 | 0.30 | 0.30 | 82 | 1001.7 |
| 20260506174935 | 19 | 96 | 3.2 | 11.3 | 0.03 | 0.30 | 0.30 | 84 | 1001.7 |
| 20260506174656 | 19 | 255 | 4.8 | 14.5 | 0.03 | 0.30 | 0.30 | 83 | 1001.9 |
| 20260506173935 | 19 | 217 | 4.8 | 14.5 | 0.03 | 0.30 | 0.30 | 84 | 1001.5 |
| 20260506173706 | 18 | 274 | 4.8 | 20.9 | 0.03 | 0.30 | 0.30 | 84 | 1001.6 |
| 20260506172935 | 18 | 198 | 4.8 | 20.9 | 0.03 | 0.30 | 0.30 | 84 | 1001.7 |
| 20260506172434 | 18 | 211 | 6.4 | 20.9 | 0.03 | 0.30 | 0.30 | 84 | 1001.9 |
| 20260506171934 | 18 | 205 | 6.4 | 22.5 | 0.03 | 0.30 | 0.30 | 84 | 1001.9 |
| 20260506171434 | 18 | 223 | 6.4 | 22.5 | 0.00 | 0.28 | 0.28 | 85 | 1001.9 |
| 20260506170934 | 18 | 236 | 3.2 | 19.3 | 0.00 | 0.28 | 0.28 | 86 | 1002.0 |
| 20260506170434 | 18 | 167 | 3.2 | 16.1 | 0.00 | 0.28 | 0.28 | 86 | 1001.8 |
| 20260506165934 | 18 | 215 | 3.2 | 11.3 | 0.00 | 0.28 | 0.28 | 87 | 1001.9 |
| 20260506165434 | 18 | 218 | 3.2 | 11.3 | 0.00 | 0.28 | 0.28 | 87 | 1001.9 |
| 20260506164934 | 18 | 227 | 3.2 | 16.1 | 0.00 | 0.28 | 0.28 | 87 | 1001.9 |
| 20260506164434 | 17 | 92 | 3.2 | 16.1 | 0.00 | 0.28 | 0.28 | 87 | 1002.0 |
| 20260506163931 | 18 | 217 | 1.6 | 11.3 | 0.00 | 0.28 | 0.28 | 87 | 1002.0 |
| 20260506163430 | 17 | 269 | 3.2 | 16.1 | 0.03 | 0.28 | 0.28 | 87 | 1001.9 |
| 20260506162930 | 17 | 188 | 3.2 | 16.1 | 0.03 | 0.28 | 0.28 | 87 | 1002.0 |
| 20260506162433 | 17 | 223 | 4.8 | 16.1 | 0.03 | 0.28 | 0.28 | 87 | 1002.1 |
| 20260506161931 | 17 | 209 | 3.2 | 11.3 | 0.03 | 0.28 | 0.28 | 87 | 1002.0 |
| 20260506161432 | 17 | 126 | 3.2 | 14.5 | 0.05 | 0.28 | 0.28 | 87 | 1001.9 |
| 20260506160931 | 17 | 148 | 3.2 | 14.5 | 0.05 | 0.28 | 0.28 | 87 | 1002.3 |
| 20260506160430 | 17 | 245 | 1.6 | 9.7 | 0.05 | 0.28 | 0.28 | 87 | 1002.4 |
| 20260506155930 | 17 | 206 | 1.6 | 9.7 | 0.05 | 0.28 | 0.28 | 87 | 1002.4 |
| 20260506155428 | 17 | 223 | 1.6 | 11.3 | 0.08 | 0.28 | 0.28 | 87 | 1002.4 |
| 20260506154929 | 17 | 124 | 3.2 | 11.3 | 0.08 | 0.28 | 0.28 | 87 | 1002.4 |
| 20260506154429 | 17 | 168 | 1.6 | 8.0 | 0.10 | 0.28 | 0.28 | 87 | 1002.2 |
| 20260506153929 | 16 | 211 | 1.6 | 4.8 | 0.15 | 0.28 | 0.28 | 87 | 1002.1 |
| 20260506153644 | 16 | 212 | 1.6 | 9.7 | 0.15 | 0.25 | 0.25 | 87 | 1002.3 |
| 20260506152921 | 16 | 225 | 1.6 | 9.7 | 0.18 | 0.25 | 0.25 | 87 | 1002.5 |
| 20260506152420 | 17 | 231 | 1.6 | 8.0 | 0.20 | 0.25 | 0.25 | 87 | 1002.9 |
| 20260506151921 | 17 | 127 | 1.6 | 9.7 | 0.23 | 0.25 | 0.25 | 87 | 1003.1 |
| 20260506151421 | 17 | 235 | 1.6 | 9.7 | 0.20 | 0.23 | 0.23 | 87 | 1003.2 |
| 20260506150920 | 16 | 212 | 0.0 | 8.0 | 0.20 | 0.23 | 0.23 | 87 | 1003.2 |
| 20260506150420 | 16 | 217 | 0.0 | 3.2 | 0.20 | 0.23 | 0.23 | 87 | 1003.1 |
| 20260506145921 | 16 | 205 | 0.0 | 3.2 | 0.20 | 0.23 | 0.23 | 87 | 1003.1 |
| 20260506145420 | 16 | 150 | 0.0 | 3.2 | 0.20 | 0.20 | 0.20 | 87 | 1003.0 |
| 20260506144921 | 16 | 238 | 0.0 | 3.2 | 0.20 | 0.20 | 0.20 | 87 | 1003.2 |
| 20260506144417 | 16 | 264 | 0.0 | 3.2 | 0.18 | 0.18 | 0.18 | 87 | 1003.2 |
| 20260506144146 | 16 | 159 | 0.0 | 4.8 | 0.13 | 0.13 | 0.15 | 86 | 1003.1 |
| 20260506143416 | 16 | 205 | 1.6 | 9.7 | 0.10 | 0.10 | 0.10 | 86 | 1003.1 |
| 20260506142917 | 16 | 236 | 1.6 | 9.7 | 0.08 | 0.08 | 0.08 | 86 | 1003.1 |
| 20260506141916 | 17 | 176 | 1.6 | 9.7 | 0.03 | 0.03 | 0.03 | 85 | 1003.1 |
| 20260506141417 | 17 | 219 | 1.6 | 12.9 | 0.03 | 0.03 | 0.03 | 85 | 1003.2 |
| 20260506140917 | 17 | 177 | 3.2 | 12.9 | 0.03 | 0.03 | 0.03 | 84 | 1003.3 |
| 20260506140417 | 17 | 229 | 3.2 | 11.3 | 0.03 | 0.03 | 0.03 | 83 | 1003.3 |
| 20260506135914 | 17 | 27 | 3.2 | 11.3 | 0.03 | 0.03 | 0.03 | 81 | 1003.4 |
| 20260506135644 | 18 | 225 | 1.6 | 11.3 | 0.00 | 0.00 | 0.00 | 80 | 1003.3 |
| 20260506134914 | 18 | 148 | 1.6 | 9.7 | 0.00 | 0.00 | 0.00 | 78 | 1003.4 |
| 20260506134414 | 18 | 261 | 1.6 | 16.1 | 0.00 | 0.00 | 0.00 | 78 | 1003.4 |
| 20260506133914 | 18 | 236 | 3.2 | 16.1 | 0.00 | 0.00 | 0.00 | 77 | 1003.4 |
| 20260506133414 | 18 | 236 | 1.6 | 9.7 | 0.00 | 0.00 | 0.00 | 77 | 1003.4 |
| 20260506132914 | 18 | 253 | 1.6 | 6.4 | 0.00 | 0.00 | 0.00 | 77 | 1003.4 |
| 20260506132639 | 18 | 249 | 1.6 | 9.7 | 0.00 | 0.00 | 0.00 | 77 | 1003.2 |
| 20260506131914 | 18 | 226 | 3.2 | 9.7 | 0.00 | 0.00 | 0.00 | 77 | 1003.2 |
| 20260506131409 | 18 | 224 | 3.2 | 12.9 | 0.00 | 0.00 | 0.00 | 76 | 1003.1 |
| 20260506131134 | 18 | 211 | 1.6 | 12.9 | 0.00 | 0.00 | 0.00 | 77 | 1003.1 |
| 20260506130408 | 18 | 234 | 1.6 | 6.4 | 0.00 | 0.00 | 0.00 | 77 | 1003.0 |
| 20260506125908 | 18 | 229 | 1.6 | 11.3 | 0.00 | 0.00 | 0.00 | 76 | 1003.0 |
| 20260506125408 | 18 | 217 | 1.6 | 11.3 | 0.00 | 0.00 | 0.00 | 76 | 1003.0 |
| 20260506124909 | 18 | 140 | 3.2 | 12.9 | 0.00 | 0.00 | 0.00 | 76 | 1002.9 |
| 20260506124409 | 18 | 209 | 1.6 | 12.9 | 0.00 | 0.00 | 0.00 | 76 | 1002.9 |
| 20260506124134 | 18 | 234 | 1.6 | 8.0 | 0.00 | 0.00 | 0.00 | 76 | 1002.9 |
| 20260506123408 | 18 | 117 | 1.6 | 8.0 | 0.00 | 0.00 | 0.00 | 76 | 1003.0 |
| 20260506122905 | 18 | 222 | 1.6 | 11.3 | 0.00 | 0.00 | 0.00 | 76 | 1003.1 |
| 20260506122404 | 18 | 127 | 1.6 | 11.3 | 0.00 | 0.00 | 0.00 | 75 | 1003.2 |
| 20260506121904 | 18 | 234 | 1.6 | 9.7 | 0.00 | 0.00 | 0.00 | 76 | 1003.2 |
| 20260506121404 | 18 | 152 | 1.6 | 8.0 | 0.00 | 0.00 | 0.00 | 76 | 1003.2 |
| 20260506120904 | 18 | 9 | 1.6 | 11.3 | 0.00 | 0.00 | 0.00 | 76 | 1003.3 |
| 20260506120631 | 18 | 214 | 1.6 | 12.9 | 0.00 | 0.00 | 0.00 | 76 | 1003.2 |
| 20260506115904 | 18 | 245 | 3.2 | 12.9 | 0.00 | 0.00 | 0.00 | 75 | 1003.2 |
| 20260506115402 | 18 | 224 | 3.2 | 12.9 | 0.00 | 0.00 | 0.00 | 75 | 1003.1 |
| 20260506114400 | 18 | 162 | 1.6 | 9.7 | 0.00 | 0.00 | 0.00 | 76 | 1003.0 |
| 20260506113900 | 18 | 222 | 1.6 | 16.1 | 0.00 | 0.00 | 0.00 | 76 | 1002.9 |
| 20260506113354 | 18 | 259 | 3.2 | 16.1 | 0.00 | 0.00 | 0.00 | 76 | 1002.9 |
| 20260506112849 | 18 | 299 | 3.2 | 12.9 | 0.00 | 0.00 | 0.00 | 77 | 1002.8 |
| 20260506112346 | 18 | 155 | 4.8 | 9.7 | 0.00 | 0.00 | 0.00 | 77 | 1002.9 |
| 20260506111846 | 18 | 231 | 3.2 | 12.9 | 0.00 | 0.00 | 0.00 | 78 | 1002.6 |
| 20260506111346 | 18 | 198 | 3.2 | 12.9 | 0.00 | 0.00 | 0.00 | 78 | 1002.7 |
| 20260506110845 | 18 | 223 | 3.2 | 12.9 | 0.00 | 0.00 | 0.00 | 78 | 1002.7 |
| 20260506110611 | 18 | 250 | 3.2 | 12.9 | 0.00 | 0.00 | 0.00 | 78 | 1002.7 |
| 20260506105841 | 18 | 116 | 3.2 | 12.9 | 0.00 | 0.00 | 0.00 | 79 | 1002.6 |
| 20260506105602 | 17 | 265 | 3.2 | 12.9 | 0.00 | 0.00 | 0.00 | 79 | 1002.7 |
| 20260506104838 | 17 | 122 | 3.2 | 9.7 | 0.00 | 0.00 | 0.00 | 79 | 1002.6 |
| 20260506104339 | 17 | 120 | 3.2 | 12.9 | 0.00 | 0.00 | 0.00 | 79 | 1002.5 |
| 20260506103836 | 17 | 277 | 3.2 | 12.9 | 0.00 | 0.00 | 0.00 | 79 | 1002.6 |
| 20260506103337 | 17 | 297 | 1.6 | 12.9 | 0.00 | 0.00 | 0.00 | 79 | 1002.5 |
| 20260506102836 | 17 | 205 | 1.6 | 12.9 | 0.00 | 0.00 | 0.00 | 80 | 1002.5 |
| 20260506102334 | 17 | 176 | 3.2 | 12.9 | 0.00 | 0.00 | 0.00 | 80 | 1002.5 |
| 20260506101835 | 17 | 276 | 1.6 | 12.9 | 0.00 | 0.00 | 0.00 | 80 | 1002.5 |
| 20260506101335 | 17 | 211 | 1.6 | 9.7 | 0.00 | 0.00 | 0.00 | 80 | 1002.5 |
| 20260506100834 | 17 | 181 | 1.6 | 9.7 | 0.00 | 0.00 | 0.00 | 80 | 1002.4 |
| 20260506100335 | 17 | 248 | 1.6 | 9.7 | 0.00 | 0.00 | 0.00 | 80 | 1002.5 |
| 20260506095834 | 17 | 236 | 1.6 | 8.0 | 0.00 | 0.00 | 0.00 | 80 | 1002.5 |
| 20260506095337 | 17 | 200 | 1.6 | 8.0 | 0.00 | 0.00 | 0.00 | 80 | 1002.5 |
| 20260506094834 | 17 | 214 | 1.6 | 12.9 | 0.00 | 0.00 | 0.00 | 79 | 1002.5 |
| 20260506094334 | 17 | 224 | 1.6 | 12.9 | 0.00 | 0.00 | 0.00 | 79 | 1002.6 |
| 20260506093834 | 17 | 226 | 1.6 | 9.7 | 0.00 | 0.00 | 0.00 | 79 | 1002.7 |
| 20260506093334 | 17 | 164 | 1.6 | 8.0 | 0.00 | 0.00 | 0.00 | 79 | 1002.7 |
| 20260506093059 | 17 | 143 | 1.6 | 8.0 | 0.00 | 0.00 | 0.00 | 79 | 1002.6 |
| 20260506092334 | 17 | 245 | 1.6 | 6.4 | 0.00 | 0.00 | 0.00 | 79 | 1002.6 |